Location: Howard City Library
(37.4684°N, 96.2639°W)
Time: 23:21:28
(UTC+00:00)

Cosmos 1943 Rocket - Pass Details

Date: 18 February 2020
Orbit: 813 x 842 km, 71.0° (Epoch: 05 April)

Event Time Altitude Azimuth Distance (km) Brightness Sun altitude
Exits shadow 10:59:06 - 347° (NNW) 2,825 4.9 -26.9°
Reaches altitude 10° 11:00:14 10° 351° (N) 2,408 4.5 -26.6°
Maximum altitude 11:05:30 45° 63° (ENE) 1,103 3.1 -25.6°
Drops below altitude 10° 11:10:44 10° 136° (SE) 2,398 5.1 -24.6°
Sets 11:13:15 0° 142° (SE) 3,329 5.8 -24.1°
